Flag for U.S.A. Weather past 2 weeks in Jacksonville, Florida, U.S.A.

Now
86 °F

Scattered clouds.


Feels Like: 85 °F
Forecast: 62 / 83 °F
Wind: 8 mph from Northwest

Location: Jacksonville Naval Air Station


UV Index: 5 (Moderate)

Visibility: 10 mi


Pressure: 29.84 "Hg

Humidity: 39%

Dew point: 58 °F

Location of JacksonvilleLocation

Historic Weather in Jacksonville

°F

Jacksonville temperature yesterday

Maximum temperature yesterday: 86 °F (at 3:53 PM)
Minimum temperature yesterday: 60 °F (at 4:53 AM)
Average temperature yesterday: 72 °F

Past Weeks' High & Low Weather Summary

 TemperatureHumidityPressure
High86 °F (Apr 22, 3:53 PM)91% (Apr 18, 5:53 PM)30.31 "Hg (Apr 18, 5:53 PM)
Low49 °F (Apr 16, 3:53 AM)26% (Apr 10, 12:53 PM)29.66 "Hg (Apr 8, 5:53 PM)
Average69 °F67%30.05 "Hg
* Reported Apr 8 3:53 PM — Apr 23 3:53 PM, Jacksonville, Weather by CustomWeather, © 2014

Note: Actual official high and low records may vary slightly from our data, if they occured in-between our weather recording intervals... More about our weather records

Advertising

Historic Weather Conditions — Data for Previous 24 hours

 ConditionsComfort  
Time TempWeatherWind HumidityBarometerVisibility
3:53 PM
Apr 23
86 °FScattered clouds.9 mph39%29.85 "Hg10 mi
2:53 PM85 °FScattered clouds.8 mph40%29.87 "Hg10 mi
1:53 PM83 °FScattered clouds.9 mph44%29.89 "Hg10 mi
12:53 PM81 °FPassing clouds.10 mph47%29.90 "Hg10 mi
11:53 AM80 °FPassing clouds.7 mph51%29.93 "Hg10 mi
10:53 AM77 °FSunny.7 mph58%29.93 "Hg10 mi
9:53 AM72 °FSunny.5 mph71%29.92 "Hg10 mi
8:53 AM66 °FPassing clouds.6 mph84%29.91 "Hg10 mi
8:02 AM64 °FScattered clouds.7 mph90%29.92 "Hg10 mi
7:53 AM64 °FLow clouds.3 mph90%29.91 "Hg10 mi
6:53 AM63 °FPassing clouds.6 mph90%29.88 "Hg10 mi
5:53 AM64 °FPartly cloudy.7 mph87%29.87 "Hg10 mi
4:53 AM64 °FPassing clouds.6 mph87%29.86 "Hg10 mi
3:53 AM65 °FPassing clouds.6 mph85%29.86 "Hg10 mi
2:53 AM66 °FPassing clouds.5 mph81%29.86 "Hg10 mi
1:53 AM67 °FClear.9 mph79%29.87 "Hg10 mi
12:53 AM68 °FClear.10 mph73%29.87 "Hg10 mi
11:53 PM
Apr 22
70 °FClear.10 mph68%29.86 "Hg10 mi
10:53 PM72 °FClear.10 mph61%29.87 "Hg10 mi
9:53 PM74 °FClear.9 mph56%29.86 "Hg10 mi
8:53 PM77 °FPassing clouds.7 mph48%29.83 "Hg10 mi
7:53 PM80 °FPassing clouds.7 mph44%29.81 "Hg10 mi
6:53 PM82 °FPassing clouds.14 mph38%29.81 "Hg10 mi
5:53 PM83 °FScattered clouds.13 mph36%29.81 "Hg10 mi
Weather by CustomWeather, © 2014

See weather overview